SCOUT A DEB, 2644

Orbit data source: Space-Track

SCOUT A DEB, 2644 is space debris in LEO originally from a launch on Thu, 19 May 1966 UTC launched from the Air Force Western Test Range (AFWTR). Debris objects in space refer to the collection of defunct objects orbiting the Earth. Examples of debris include non-operational satellites, rocket bodies, and fragments generated from explosions, collisions, or faulty payload assembly.

Loading next visibility...
SCOUT A DEB details
Identifier
2644, 1966-041D
Orbit
LEO
Last TLE update1 day ago
Origin
Flag of USUSN NAVAIR (US)
ManufacturerUnknown
MissionSpacecraft
Bus & MotorUnknown
MassUnknown
Launch date (UTC)
1966-05-19 (59 years ago)
Launch vehicleUnknown
Launch site
Air Force Western Test Range (AFWTR)
Object type
Payload
Rocket body
Debris
Shape & HBRUnknown
Radar Cross SectionSmall (<0.1 m²)

Expand to show TLE details & history

TLE from 1 day ago
0 SCOUT A DEB
1 02644U 66041D   24355.29857812  .00000490  00000-0  41455-3 0  9999
2 02644  90.1442  36.3710 0212478 214.0635 144.6743 13.76756147923845
Epoch: 2024-12-20T07:09Z
Definitive object data (Epoch: 2024-12-20T07:09:57.149Z)
Latitude-0°
Longitude-160.48321°
Altitude1,106.994 km
Speed7.235 km/s
True Right ascension02h 25m 29s
True Declination0° 00' 00"
Sunlit
Object was in full shadow at TLE epoch
Visualization TLE readout
Latitude51.71749°
Longitude-160.6449°
Altitude1,128.74 km
Speed7.221 km/s
Apparent Right ascension02h 07m 48s
Apparent Declination10° 41' 05"
Sunlit
Object is in full shadow
Visualization observer readout
Local Sidereal Time13:51:37
Azimuth354.86° N
Elevation-39.26°
Doppler factor1
Orbital elements
Apogee altitude1,128.607 km
Perigee altitude816.24 km
Semi-major axis7,350.561 km
Eccentricity0.0212478
Inclination90.1442°
RAAN36.371°
Arg. of periapsis214.0635°
True anomaly146.05215°
Mean anomaly144.6743°
Eccentric anomaly145.36619°
Mean motion3.44399 °/min
BSTAR0.00041455
Orbital period104.53 mins
Loading maneuver chart data...
Loading historical data...
Loading historical data...
Loading historical data...
Loading historical data...
Loading historical data...
Loading historical data...
Loading historical data...

SCOUT A DEB Visibility forecast

Observer location: undefined°, undefined

Span
Click to sort rows by Start time (UTC) header in descending order
Start Az.
Max El. time (UTC)
Max El. Az.
Max El.
End time (UTC)
End Az.
10 mins2024-12-21 15:10:25.684Z6.015° NNE2024-12-21 15:15:25.684Z75.431° E44.27°2024-12-21 15:20:25.684Z177.579° S
4 mins2024-12-21 16:57:25.684Z308.043° NW2024-12-21 16:59:25.684Z286.329° WNW13.489°2024-12-21 17:01:25.684Z265.239° W
11 mins2024-12-22 02:53:25.684Z158.637° S2024-12-22 02:58:25.684Z91.582° ESE41.677°2024-12-22 03:04:25.684Z6.006° NNE
9 mins2024-12-22 04:39:25.684Z238.809° WSW2024-12-22 04:43:25.684Z279.851° WNW20.97°2024-12-22 04:48:25.684Z327.999° NNW
5 mins2024-12-22 13:53:25.684Z51.826° ENE2024-12-22 13:55:25.684Z75.022° E16.615°2024-12-22 13:58:25.684Z110.247° ESE
|